Regional Weather Roundup
Issued by NWS Nashville, TN

Home | Current Version | Previous Version | Text Only | Print | Product List | Glossary On
Versions: 1 2 3 4 5 6 7 8 9 10 11 12 13 14 15 16 17 18 19 20 21 22 23 24 25 26 27 28 29 30 31 32 33 34 35 36 37 38 39 40 41 42 43 44 45 46 47 48 49 50
779
ASUS44 KOHX 031710
RWROHX
MIDDLE TENNESSEE HOURLY WEATHER ROUNDUP
NATIONAL WEATHER SERVICE NASHVILLE TN
1100 AM CST SAT DEC 03 2016

NOTE: "FAIR" INDICATES FEW OR NO CLOUDS BELOW 12,000 FEET WITH
NO SIGNIFICANT WEATHER AND/OR OBSTRUCTIONS TO VISIBILITY.

* THESE REPORTS ARE NOT UNDER NWS QUALITY CONTROL AND MAY NOT
  REPORT WEATHER SUCH AS PRECIPITATION AND FOG.


TNZ005>011-023>034-057-059-062>066-078-080-031800
...NORTHERN MIDDLE TENNESSEE...

CITY           SKY/WX    TMP DP  RH WIND       PRES   REMARKS
CLARKSVILLE    CLOUDY    42  31  64 E5        30.38S
CROSSVILLE     CLOUDY    40  29  64 VRB3      30.29S
LEBANON        CLOUDY    41  31  68 CALM      30.34R
NASHVILLE      CLOUDY    44  30  57 E6        30.36R
PORTLAND       SUNNY     41  32  70 NE7       30.35F
SMYRNA         CLOUDY    44  32  62 N5        30.36S
SPRINGFIELD    SUNNY     41  32  70 NE6       30.36S
WEST NASHVILLE SUNNY     41  30  65 E3        30.37R
$$
TNZ056-058-060-061-075>077-079-093>097-031800
...SOUTHERN MIDDLE TENNESSEE...

CITY           SKY/WX    TMP DP  RH WIND       PRES   REMARKS
COLUMBIA       SUNNY     45  39  81 N7        30.30F
FAYETTEVILLE   SUNNY     45  34  65 CALM      30.30F
MCMINNVILLE    SUNNY     43  30  61 N3        30.31F
SHELBYVILLE    SUNNY     45  34  65 VRB3      30.33F
TULLAHOMA      SUNNY     43  30  61 NE5       30.31F
WINCHESTER     SUNNY     45  34  65 N6        30.31S
$$


...KEY TO REMARKS...
VSB - VISIBILITY IN MILES
WCI - WIND CHILL INDEX
HX  - HEAT INDEX





USA.gov is the U.S. government's official web portal to all federal, state and local government web resources and services.